Regional Weather Roundup
Issued by NWS

Home | Current Version | Previous Version | Text Only | Print | Product List | Glossary On
Versions: 1 2 3 4 5 6 7 8 9 10 11 12 13 14 15 16 17 18 19 20 21 22 23 24 25 26 27 28 29 30 31 32 33 34 35 36 37 38 39 40 41 42 43 44 45 46 47 48 49 50
000
ASUS42 KFFC 020403
RWRGA
WEATHER ROUNDUP FOR GEORGIA
NATIONAL WEATHER SERVICE PEACHTREE CITY GA
1200 AM EDT TUE SEP 02 2014

NOTE: "FAIR" INDICATES FEW OR NO CLOUDS BELOW 12,000 FEET WITH NO
SIGNIFICANT WEATHER AND/OR OBSTRUCTIONS TO VISIBILITY.

* = USE WITH CAUTION. THE STATIONS MARKED WITH AN ASTERISK MAY NOT
REPORT WEATHER SUCH AS PRECIPITATION, FOG, OR THUNDER AND ARE NOT
QUALITY CONTROLLED BY NWS.

THE REMARK "TC" DENOTES TEMPERATURE READING IN DEGREES CELSIUS.

GAZ001>058-020500-
NORTH GEORGIA

CITY           SKY/WX    TMP DP  RH WIND       PRES   REMARKS
ATLANTA        MOCLDY    75  72  90 S3        30.12F
ATHENS         MOCLDY    75  70  84 SW3       30.13S
CHAMBLEE       PTCLDY    75  69  81 S3        30.12F
PEACHTREE CITY CLEAR     72  71  97 CALM      30.12F
ROME           PTCLDY    73  70  90 CALM      30.08F
WEST ATLANTA   PTCLDY    77  70  79 CALM      30.12F
GAINESVILLE    PTCLDY    76  69  79 S6        30.16S
CARTERSVILLE   MOCLDY    75  70  84 NE3       30.10F


CITY           SKY/WX    TMP DP  RH WIND       PRES   REMARKS
DALTON*        PTCLDY    73  72  94 CALM      30.10F
MARIETTA       MOCLDY    76  71  83 NE1       30.13S
$$

GAZ059>098-102>109-020500-
CENTRAL GEORGIA

CITY           SKY/WX    TMP DP  RH WIND       PRES   REMARKS
AUGUSTA-BUSH   CLOUDY    77  75  93 W6        30.09S
AUGUSTA-DANIEL CLOUDY    79  74  84 CALM      30.11S
COLUMBUS       PTCLDY    75  71  87 CALM      30.10S
MACON          CLOUDY    74  74 100 S3        30.08F
ROBINS AFB     CLOUDY    74  72  95 S2        30.08F


CITY           SKY/WX    TMP DP  RH WIND       PRES   REMARKS
LAGRANGE*      PTCLDY    75  74  97 CALM      30.11S
SYLVANIA*      MOCLDY    82  79  91 CALM      30.10F HX  92
MILLEDGEVILLE* LGT RAIN  73  73 100 CALM      30.10F
$$

GAZ099>101-110>166-020500-
SOUTH GEORGIA

CITY           SKY/WX    TMP DP  RH WIND       PRES   REMARKS
SAVANNAH       PTCLDY    81  76  84 S6        30.11S
VALDOSTA       LGT RAIN  75  72  90 CALM      30.13R
ALMA           MOCLDY    77  70  79 CALM      30.11R
ST SIMONS      MOCLDY    83  74  74 SW5       30.11R
FT STEWART     PTCLDY    79  74  85 S2        30.09F
ALBANY         PTCLDY    80  72  76 SW7       30.11F
HUNTER AFB     PTCLDY    81  77  88 S3        30.09S
MOODY AFB      TSTM      75  72  91 VRB2      30.11F
BRUNSWICK      MOCLDY    82  73  74 S5        30.12S


CITY           SKY/WX    TMP DP  RH WIND       PRES   REMARKS
BAINBRIDGE*    PTCLDY    81  75  83 CALM      30.10F
MOULTRIE*      PTCLDY    79  73  83 SE5       30.12S
VIDALIA*         N/A     79  75  89 CALM      30.12R
WAYCROSS*      MOCLDY    82  78  89 SE5       30.10F HX  90
DOUGLAS*       CLOUDY    82  73  74 NW9       30.13R THUNDER
$$



USA.gov is the U.S. government's official web portal to all federal, state and local government web resources and services.